Ogallala, NE

4:26 PM MST on December 16, 2017 (GMT -0700)
Searle

Weather History for KOGA - February, 2012

Change the Weather History Date:

Monday, February 27, 2012

  Actual Average Record
Temperature  
Mean Temperature 27 °F -  
Max Temperature 47 °F 46 °F 75 °F (2016)
Min Temperature 7 °F 22 °F -10 °F (1962)
Degree Days  
Heating Degree Days 38    
Moisture  
Dew Point 13 °F    
Average Humidity 62    
Maximum Humidity 87    
Minimum Humidity 22    
Precipitation  
Precipitation 0.00 in - - ()
Sea Level Pressure  
Sea Level Pressure 30.23 in    
Wind  
Wind Speed 8 mph (SSE)    
Max Wind Speed 24 mph    
Max Gust Speed 32 mph    
Visibility 10 miles    
Events      
Averages and records for this station are not official NWS values.
T = Trace of Precipitation, MM = Missing Value Source: NWS Daily Summary

Daily Weather History Graph

Daily Weather History Graph

Search for Another Location

Airport or City:

Trip Planner

Search our weather history database for the weather conditions in past years. The results will help you decide how hot, cold, wet, or windy it might be!

Date:

Astronomy

Feb. 27, 2012 Rise Set
Actual Time 6:25 AM MST 5:35 PM MST
Civil Twilight 5:57 AM MST 6:02 PM MST
Nautical Twilight 5:25 AM MST 6:34 PM MST
Astronomical Twilight 4:53 AM MST 7:06 PM MST
Moon 8:52 AM MST (2/27) 11:34 PM MST (2/27)
Length of Visible Light 12h 05m
Length of Day
11h 10m
Waxing Crescent, 29% of the Moon is Illuminated
Feb 27
Waxing Crescent
Feb 29
First Quarter
Mar 8
Full
Mar 14
Last Quarter
Mar 22
New

Hourly Weather History & Observations

Time (MST) Temp. Windchill Dew Point Humidity Pressure Visibility Wind Dir Wind Speed Gust Speed Precip Events Conditions
12:15 AM 21.6 °F 12.1 °F 16.0 °F 79% 30.28 in 10.0 mi ENE 8.1 mph - N/A   Clear
12:35 AM 19.9 °F 10.1 °F 15.6 °F 83% 30.29 in 10.0 mi East 8.1 mph - N/A   Clear
12:55 AM 19.2 °F 8.4 °F 14.9 °F 83% 30.29 in 10.0 mi East 9.2 mph - N/A   Clear
1:15 AM 18.5 °F 10.4 °F 14.4 °F 84% 30.29 in 10.0 mi East 5.8 mph - N/A   Clear
1:35 AM 17.2 °F 10.2 °F 13.1 °F 84% 30.29 in 10.0 mi East 4.6 mph - N/A   Clear
1:55 AM 15.8 °F - 12.0 °F 85% 30.29 in 10.0 mi Calm Calm - N/A   Clear
2:15 AM 15.3 °F - 11.5 °F 85% 30.29 in 10.0 mi Calm Calm - N/A   Clear
2:35 AM 13.6 °F - 10.2 °F 86% 30.29 in 10.0 mi Calm Calm - N/A   Clear
2:55 AM 14.5 °F - 10.8 °F 85% 30.29 in 10.0 mi Calm Calm - N/A   Clear
3:15 AM 14.2 °F - 10.8 °F 86% 30.30 in 10.0 mi Calm Calm - N/A   Clear
3:35 AM 10.0 °F - 6.6 °F 86% 30.29 in 10.0 mi Calm Calm - N/A   Clear
3:55 AM 10.9 °F - 7.0 °F 84% 30.29 in 10.0 mi Calm Calm - N/A   Clear
4:15 AM 9.9 °F - 6.3 °F 85% 30.30 in 10.0 mi Calm Calm - N/A   Clear
4:35 AM 9.9 °F - 6.6 °F 87% 30.31 in 10.0 mi Calm Calm - N/A   Clear
4:55 AM 8.6 °F - 5.0 °F 85% 30.31 in 10.0 mi Calm Calm - N/A   Clear
5:15 AM 7.9 °F - 4.3 °F 85% 30.31 in 10.0 mi Calm Calm - N/A   Clear
5:35 AM 8.6 °F - 5.4 °F 87% 30.32 in 10.0 mi Calm Calm - N/A   Clear
5:55 AM 9.0 °F - 5.9 °F 87% 30.31 in 10.0 mi Calm Calm - N/A   Clear
6:15 AM 10.4 °F - 6.8 °F 85% 30.32 in 10.0 mi Calm Calm - N/A   Clear
6:35 AM 9.3 °F - 5.4 °F 84% 30.32 in 10.0 mi Calm Calm - N/A   Clear
6:55 AM 11.1 °F - 7.7 °F 86% 30.32 in 10.0 mi Calm Calm - N/A   Clear
7:15 AM 14.2 °F - 10.6 °F 86% 30.32 in 10.0 mi Calm Calm - N/A   Clear
7:35 AM 16.9 °F 9.8 °F 12.2 °F 82% 30.33 in 10.0 mi SSE 4.6 mph - N/A   Clear
7:55 AM 18.7 °F 10.6 °F 13.3 °F 79% 30.33 in 10.0 mi SE 5.8 mph - N/A   Clear
8:15 AM 21.2 °F 12.6 °F 14.9 °F 77% 30.32 in 10.0 mi SSE 6.9 mph - N/A   Clear
8:35 AM 22.6 °F 14.3 °F 14.7 °F 72% 30.33 in 10.0 mi SE 6.9 mph - N/A   Clear
8:55 AM 24.4 °F 15.6 °F 16.9 °F 73% 30.31 in 10.0 mi SE 8.1 mph - N/A   Clear
9:15 AM 26.1 °F 17.6 °F 16.9 °F 68% 30.30 in 10.0 mi SE 8.1 mph - N/A   Clear
9:35 AM 28.2 °F 20.2 °F 16.9 °F 63% 30.30 in 10.0 mi SSE 8.1 mph - N/A   Clear
9:55 AM 30.0 °F 20.0 °F 17.4 °F 59% 30.29 in 10.0 mi SSE 12.7 mph 17.3 mph N/A   Clear
10:15 AM 32.0 °F 23.0 °F 18.3 °F 57% 30.27 in 10.0 mi SSE 11.5 mph 17.3 mph N/A   Clear
10:35 AM 34.2 °F 23.0 °F 18.5 °F 53% 30.26 in 10.0 mi South 19.6 mph 23.0 mph N/A   Clear
10:55 AM 34.7 °F 24.0 °F 18.5 °F 52% 30.26 in 10.0 mi South 18.4 mph 21.9 mph N/A   Clear
11:15 AM 36.1 °F 25.2 °F 18.0 °F 48% 30.25 in 10.0 mi South 20.7 mph 29.9 mph N/A   Clear
11:55 AM 38.3 °F 29.3 °F 17.1 °F 42% 30.22 in 10.0 mi SSE 16.1 mph 23.0 mph N/A   Clear
12:15 PM 37.9 °F 29.6 °F 17.8 °F 44% 30.19 in 10.0 mi SSE 13.8 mph 26.5 mph N/A   Clear
12:35 PM 40.1 °F 30.5 °F 16.7 °F 39% 30.17 in 10.0 mi SSE 20.7 mph 25.3 mph N/A   Clear
12:55 PM 40.1 °F 30.5 °F 15.6 °F 37% 30.15 in 10.0 mi South 20.7 mph 26.5 mph N/A   Clear
1:15 PM 41.2 °F 32.4 °F 16.0 °F 36% 30.13 in 10.0 mi SSE 18.4 mph 26.5 mph N/A   Clear
1:35 PM 42.4 °F 33.1 °F 14.7 °F 33% 30.12 in 10.0 mi South 23.0 mph 29.9 mph N/A   Clear
1:55 PM 44.4 °F 35.9 °F 15.1 °F 31% 30.11 in 10.0 mi South 21.9 mph 28.8 mph N/A   Clear
2:15 PM 45.5 °F 37.1 °F 11.8 °F 26% 30.10 in 10.0 mi South 23.0 mph 31.1 mph N/A   Clear
2:35 PM 45.9 °F 38.5 °F 13.6 °F 27% 30.09 in 10.0 mi South 18.4 mph 29.9 mph N/A   Clear
2:55 PM 47.3 °F - 12.7 °F 25% 30.08 in 10.0 mi South 24.2 mph 29.9 mph N/A   Clear
3:15 PM 47.7 °F - 9.7 °F 22% 30.08 in 10.0 mi South 19.6 mph 32.2 mph N/A   Clear
3:35 PM 47.1 °F - 10.2 °F 22% 30.07 in 10.0 mi South 24.2 mph 31.1 mph N/A   Mostly Cloudy
3:55 PM 46.4 °F 38.3 °F 12.0 °F 25% 30.07 in 10.0 mi South 23.0 mph 28.8 mph N/A   Mostly Cloudy
4:15 PM 45.9 °F 38.5 °F 14.5 °F 28% 30.06 in 10.0 mi South 18.4 mph 31.1 mph N/A   Scattered Clouds
4:35 PM 44.4 °F 36.6 °F 15.3 °F 31% 30.05 in 10.0 mi SSE 18.4 mph 27.6 mph N/A   Scattered Clouds
4:55 PM 44.4 °F 37.2 °F 16.2 °F 32% 30.05 in 10.0 mi SSE 16.1 mph 25.3 mph N/A   Mostly Cloudy
5:15 PM 41.9 °F 35.4 °F 16.2 °F 35% 30.05 in 10.0 mi SSE 11.5 mph - N/A   Scattered Clouds
5:35 PM 40.1 °F 33.2 °F 16.5 °F 39% 30.05 in 10.0 mi SSE 11.5 mph - N/A   Clear
5:55 PM 38.3 °F 31.4 °F 17.1 °F 42% 30.05 in 10.0 mi SSE 10.4 mph - N/A   Clear
6:15 PM 38.1 °F 31.7 °F 17.4 °F 43% 30.04 in 10.0 mi SE 9.2 mph - N/A   Scattered Clouds
6:35 PM 38.3 °F 33.2 °F 18.0 °F 44% 30.05 in 10.0 mi ESE 6.9 mph - N/A   Overcast
6:55 PM 38.7 °F 31.8 °F 18.5 °F 44% 30.05 in 10.0 mi SE 10.4 mph - N/A   Overcast
7:15 PM 38.7 °F 31.8 °F 19.0 °F 45% 30.04 in 10.0 mi SE 10.4 mph - N/A   Overcast
7:35 PM 36.7 °F 32.0 °F 19.4 °F 50% 30.04 in 10.0 mi SE 5.8 mph - N/A   Mostly Cloudy
7:55 PM 34.9 °F 28.3 °F 19.4 °F 53% 30.04 in 10.0 mi SE 8.1 mph - N/A   Clear
8:15 PM 35.6 °F 31.7 °F 19.9 °F 53% 30.04 in 10.0 mi ESE 4.6 mph - N/A   Mostly Cloudy
8:35 PM 36.7 °F 29.9 °F 19.4 °F 50% 30.04 in 10.0 mi SE 9.2 mph - N/A   Overcast
8:55 PM 36.1 °F 28.7 °F 17.4 °F 47% 30.04 in 10.0 mi SSE 10.4 mph - N/A   Mostly Cloudy
9:15 PM 34.2 °F 28.2 °F 17.6 °F 51% 30.04 in 10.0 mi SE 6.9 mph - N/A   Clear
9:35 PM 32.2 °F 26.7 °F 18.0 °F 56% 30.04 in 10.0 mi SE 5.8 mph - N/A   Scattered Clouds
9:55 PM 32.2 °F 26.7 °F 18.9 °F 58% 30.04 in 10.0 mi East 5.8 mph - N/A   Mostly Cloudy
10:15 PM 32.9 °F 25.9 °F 19.4 °F 58% 30.03 in 10.0 mi SE 8.1 mph - N/A   Overcast
10:35 PM 33.1 °F 25.5 °F 19.4 °F 57% 30.02 in 10.0 mi SE 9.2 mph - N/A   Overcast
10:55 PM 32.9 °F 25.3 °F 19.8 °F 59% 30.01 in 10.0 mi ESE 9.2 mph - N/A   Mostly Cloudy
11:15 PM 33.3 °F 25.7 °F 20.7 °F 60% 30.00 in 10.0 mi ESE 9.2 mph - N/A   Mostly Cloudy
11:35 PM 34.2 °F 26.2 °F 21.0 °F 59% 29.99 in 10.0 mi ESE 10.4 mph - N/A   Overcast
11:55 PM 34.2 °F 25.7 °F 21.2 °F 59% 29.98 in 10.0 mi ESE 11.5 mph - N/A   Overcast